Palermo, Italy

1:28 PM CEST on April 25, 2017 (GMT +0200)
Punta Raisi

Weather History for LICJ - December, 2013

Change the Weather History Date:

Saturday, December 21, 2013

  Actual Average Record
Temperature  
Mean Temperature 54 °F -  
Max Temperature 61 °F 60 °F 69 °F (1996)
Min Temperature 47 °F 51 °F 44 °F (2001)
Degree Days  
Heating Degree Days 11    
Growing Degree Days 4 (Base 50)    
Moisture  
Dew Point 47 °F    
Average Humidity 71    
Maximum Humidity 82    
Minimum Humidity 56    
Precipitation  
Precipitation 0.00 in 0.10 in - ()
Sea Level Pressure  
Sea Level Pressure 30.48 in    
Wind  
Wind Speed 6 mph ()    
Max Wind Speed 20 mph    
Max Gust Speed -    
Visibility 6.2 miles    
Events      
Averages and records for this station are not official NWS values.
T = Trace of Precipitation, MM = Missing Value Source: Averaged Metar Reports

Daily Weather History Graph

Daily Weather History Graph

Search for Another Location

Airport or City:

Trip Planner

Search our weather history database for the weather conditions in past years. The results will help you decide how hot, cold, wet, or windy it might be!

Date:

Astronomy

Dec. 21, 2013 Rise Set
Actual Time 7:20 AM CET 4:51 PM CET
Civil Twilight 6:50 AM CET 5:20 PM CET
Nautical Twilight 6:17 AM CET 5:53 PM CET
Astronomical Twilight 5:45 AM CET 6:25 PM CET
Moon 8:48 PM CET (12/21) 9:40 AM CET (12/21)
Length of Visible Light 10h 29m
Length of Day
9h 30m
Waning Gibbous, 86% of the Moon is Illuminated
Dec 21
Waning Gibbous
Dec 25
Last Quarter
Jan 1
New
Jan 8
First Quarter
Jan 16
Full

Hourly Weather History & Observations

Time (CET) Temp. Dew Point Humidity Pressure Visibility Wind Dir Wind Speed Gust Speed Precip Events Conditions
12:20 AM 51.8 °F 46.4 °F 82% 30.42 in - South 4.6 mph - N/A   Clear
12:50 AM 51.8 °F 46.4 °F 82% 30.42 in - SSW 3.5 mph - N/A   Clear
1:00 AM 52 °F 46 °F 73% 30.46 in 6 mi SSW 3.5 mph - -  
1:20 AM 51.8 °F 44.6 °F 76% 30.45 in - SSW 3.5 mph - N/A   Clear
1:50 AM 51.8 °F 44.6 °F 76% 30.45 in - SSW 4.6 mph - N/A   Clear
2:50 AM 50.0 °F 44.6 °F 82% 30.45 in - South 4.6 mph - N/A   Clear
3:50 AM 51.8 °F 42.8 °F 71% 30.45 in - SSE 2.3 mph - N/A   Clear
4:00 AM 52 °F 44 °F 65% 30.47 in 6 mi Calm Calm - -  
4:20 AM 51.8 °F 44.6 °F 76% 30.45 in - SSE 2.3 mph - N/A   Clear
4:50 AM 51.8 °F 42.8 °F 71% 30.42 in - South 1.2 mph - N/A   Clear
5:20 AM 51.8 °F 46.4 °F 82% 30.45 in - SE 3.5 mph - N/A   Clear
5:50 AM 51.8 °F 46.4 °F 82% 30.45 in - SW 2.3 mph - N/A   Clear
6:20 AM 51.8 °F 44.6 °F 76% 30.45 in - South 2.3 mph - N/A   Clear
6:50 AM 51.8 °F 44.6 °F 76% 30.45 in 6.2 mi WSW 1.2 mph - N/A   Partly Cloudy
7:00 AM 52 °F 45 °F 71% 30.49 in 6 mi SW 1.2 mph - -   Scattered Clouds
7:20 AM 51.8 °F 46.4 °F 82% 30.48 in 6.2 mi South 4.6 mph - N/A   Mostly Cloudy
7:50 AM 53.6 °F 46.4 °F 77% 30.48 in 6.2 mi South 1.2 mph - N/A   Mostly Cloudy
8:20 AM 51.8 °F 44.6 °F 76% 30.48 in 6.2 mi South 1.2 mph - N/A   Scattered Clouds
8:50 AM 53.6 °F 44.6 °F 72% 30.48 in 6.2 mi South 2.3 mph - N/A   Scattered Clouds
9:20 AM 59.0 °F 48.2 °F 67% 30.48 in 6.2 mi WNW 4.6 mph - N/A   Scattered Clouds
9:50 AM 59.0 °F 48.2 °F 67% 30.51 in 6.2 mi NNE 3.5 mph - N/A   Scattered Clouds
10:00 AM 59 °F 48 °F 58% 30.53 in 6 mi East 9.2 mph - -   Partly Cloudy
10:20 AM 60.8 °F 48.2 °F 63% 30.51 in 6.2 mi East 9.2 mph - N/A   Scattered Clouds
10:50 AM 60.8 °F 46.4 °F 59% 30.51 in 6.2 mi East 15.0 mph - N/A   Mostly Cloudy
11:20 AM 60.8 °F 46.4 °F 59% 30.51 in 6.2 mi East 19.6 mph - N/A   Mostly Cloudy
11:50 AM 60.8 °F 48.2 °F 63% 30.51 in 6.2 mi East 17.3 mph - N/A   Mostly Cloudy
12:20 PM 60.8 °F 48.2 °F 63% 30.48 in 6.2 mi East 15.0 mph - N/A   Mostly Cloudy
12:50 PM 60.8 °F 50.0 °F 68% 30.48 in 6.2 mi East 16.1 mph - N/A   Light Drizzle
1:00 PM 61 °F 49 °F 56% 30.52 in 6 mi ESE 12.7 mph - -   Mostly Cloudy
1:20 PM 60.8 °F 50.0 °F 68% 30.48 in 6.2 mi East 16.1 mph - N/A   Mostly Cloudy
1:50 PM 60.8 °F 48.2 °F 63% 30.48 in 6.2 mi East 18.4 mph - N/A   Mostly Cloudy
2:20 PM 60.8 °F 48.2 °F 63% 30.48 in 6.2 mi ENE 17.3 mph - N/A   Mostly Cloudy
2:50 PM 60.8 °F 50.0 °F 68% 30.48 in 6.2 mi ENE 17.3 mph - N/A   Scattered Clouds
3:20 PM 60.8 °F 50.0 °F 68% 30.48 in 6.2 mi ENE 18.4 mph - N/A   Partly Cloudy
3:50 PM 60.8 °F 48.2 °F 63% 30.48 in 6.2 mi East 15.0 mph - N/A   Partly Cloudy
4:00 PM 60 °F 49 °F 56% 30.51 in 6 mi ESE 15.0 mph - -   Scattered Clouds
4:20 PM 59.0 °F 48.2 °F 67% 30.45 in 6.2 mi ENE 17.3 mph - N/A   Partly Cloudy
4:50 PM 59.0 °F 48.2 °F 67% 30.48 in 6.2 mi East 12.7 mph - N/A   Partly Cloudy
5:20 PM 59.0 °F 48.2 °F 67% 30.48 in 6.2 mi ENE 6.9 mph - N/A   Partly Cloudy
5:50 PM 59.0 °F 48.2 °F 67% 30.48 in 6.2 mi ENE 8.1 mph - N/A   Partly Cloudy
6:20 PM 59.0 °F 48.2 °F 67% 30.48 in 6.2 mi ENE 6.9 mph - N/A   Scattered Clouds
6:50 PM 59.0 °F 48.2 °F 67% 30.48 in 6.2 mi East 6.9 mph - N/A   Scattered Clouds
7:00 PM 59 °F 49 °F 60% 30.52 in 6 mi East 11.5 mph - -   Partly Cloudy
7:20 PM 57.2 °F 48.2 °F 72% 30.51 in 6.2 mi SSE 2.3 mph - N/A   Scattered Clouds
7:50 PM 57.2 °F 48.2 °F 72% 30.51 in - East 5.8 mph - N/A   Clear
8:20 PM 57.2 °F 50.0 °F 77% 30.51 in - SW 2.3 mph - N/A   Clear
8:50 PM 57.2 °F 48.2 °F 72% 30.51 in - WSW 5.8 mph - N/A   Clear
9:20 PM 55.4 °F 48.2 °F 77% 30.51 in - South 3.5 mph - N/A   Clear
9:50 PM 57.2 °F 50.0 °F 77% 30.51 in - SSE 1.2 mph - N/A   Clear
10:00 PM 56 °F 49 °F 71% 30.54 in 6 mi South 2.3 mph - -  
10:20 PM 55.4 °F 48.2 °F 77% 30.51 in - East 2.3 mph - N/A   Clear
10:50 PM 55.4 °F 48.2 °F 77% 30.51 in - NNE 1.2 mph - N/A   Clear
11:20 PM 53.6 °F 48.2 °F 82% 30.51 in - SSW 3.5 mph - N/A   Clear
11:50 PM 55.4 °F 48.2 °F 77% 30.51 in - South 3.5 mph - N/A   Clear